Location: Vihti�l�
(61.3833°N, 23.0667°E)
Time: 05:39:36
(UTC+00:00)

USA 308 - Pass Details

Date: 29 November 2020
Orbit: 563 x 584 km, 54.0° (Epoch: 11 January)

Event Time Altitude Azimuth Distance (km) Brightness Sun altitude
Exits shadow 03:36:02 31° 183° (S) 1,033 4.1 -23.6°
Maximum altitude 03:36:07 31° 181° (S) 1,032 4.1 -23.6°
Drops below altitude 10° 03:39:57 10° 119° (ESE) 1,910 6.4 -23.1°
Sets 03:42:24 0° 109° (ESE) 2,810 7.7 -22.8°
